Regional Weather Roundup
Issued by NWS

Home | Current Version | Previous Version | Text Only | Print | Product List | Glossary On
Versions: 1 2 3 4 5 6 7 8 9 10 11 12 13 14 15 16 17 18 19 20 21 22 23 24 25 26 27 28 29 30 31 32 33 34 35 36 37 38 39 40 41 42 43 44 45 46 47 48 49 50
000
ASUS43 KLSX 041410
RWRMO

WEATHER SUMMARY FOR MISSOURI
NATIONAL WEATHER SERVICE SPRINGFIELD MO
900 AM CDT TUE AUG 04 2015

NOTE: "FAIR" INDICATES FEW OR NO CLOUDS BELOW 12,000 FEET WITH NO
       SIGNIFICANT WEATHER AND/OR OBSTRUCTIONS TO VISIBILITY.
       CURRENT SKY AND/OR WEATHER CONDITIONS ARE NOT AVAILABLE FOR
       CHILLICOTHE AND FARMINGTON.

MOZ001>031-035>038-043-044-053-054-041500-
...NORTHERN AND WESTERN MISSOURI...

CITY           SKY/WX    TMP DP  RH WIND       PRES   REMARKS
KANSAS CTY INT PTSUNNY   77  69  76 SE7       29.98R
KANSAS C DTWN  MOSUNNY   79  70  74 E3        29.96S
LEE`S SUMMIT   PTSUNNY   77  70  79 CALM      29.99R
ST JOSEPH      MOSUNNY   73  68  84 SE5       29.98R
CHILLICOTHE      N/A     72  67  84 CALM      30.00R
KIRKSVILLE     PTSUNNY   69  64  84 SE10      30.01R

$$
MOZ066>068-077>081-088>096-101>105-041500-
...SOUTHWEST MISSOURI...

CITY           SKY/WX    TMP DP  RH WIND       PRES   REMARKS
SPRINGFIELD    CLOUDY    78  69  73 S9        30.01S
JOPLIN         CLOUDY    79  66  64 S9        30.00S

$$
MOZ032>034-039>042-045>050-055>058-069>072-041500-
...CENTRAL MISSOURI...

CITY           SKY/WX    TMP DP  RH WIND       PRES   REMARKS
COLUMBIA       MOSUNNY   74  68  81 NE8       30.00S
JEFFERSON CITY PTSUNNY   75  67  76 SE7       29.98F
ROLLA          PTSUNNY   77  72  84 SW6       29.99S
SEDALIA        PTSUNNY   76  67  73 SE10      30.00S
WHITEMAN AFB   PTSUNNY   75  69  80 SE7       29.98R
WARRENSBURG    PTSUNNY   75  70  83 E5        29.98S
OSAGE BEACH    CLOUDY    73  70  88 S6        30.01R

$$
MOZ051-052-059>065-041500-
...EAST CENTRAL MISSOURI...

CITY           SKY/WX    TMP DP  RH WIND       PRES   REMARKS
ST LOUIS INTL  PTSUNNY   78  65  63 E5        30.01R
SPIRIT OF STL  PTSUNNY   78  68  71 N6        29.99R
ST CHARLES     PTSUNNY   75  67  76 E5        30.00R

$$
MOZ072>076-082>087-097>100-106>115-041500-
...SOUTH CENTRAL AND SOUTHEAST MISSOURI...

CITY           SKY/WX    TMP DP  RH WIND       PRES   REMARKS
CAPE GIRARDEAU MOSUNNY   79  77  94 CALM      29.98R
FARMINGTON     MOSUNNY   77  73  88 S5        30.04S
POPLAR BLUFF   MOSUNNY   81  75  82 CALM      29.98R
WEST PLAINS    PTSUNNY   80  72  76 SW5       30.04S

$$


USA.gov is the U.S. government's official web portal to all federal, state and local government web resources and services.